Hourly Weather Roundup
Issued by NWS Central Illinois

Home | Current Version | Previous Version | Text Only | Print | Product List | Glossary On
Versions: 1 2 3 4 5 6 7 8 9 10 11 12 13 14 15 16 17 18 19 20 21 22 23 24 25 26 27 28 29 30 31 32 33 34 35 36 37 38 39 40 41 42 43 44 45 46 47 48 49 50
000
NZUS43 KILX 042210
HWRILX

AREA WEATHER ROUNDUP
NATIONAL WEATHER SERVICE, LINCOLN IL
500 PM CDT MON MAY 04 2015


CITY           SKY/WX    TMP DP  RH WIND       PRES   REMARKS
BLOOMINGTON    PTSUNNY   76  66  71 E7        30.11F
CHAMPAIGN      CLOUDY    75  64  68 N13       30.10S
DANVILLE       LGT RAIN  66  63  90 N7        30.09S
DECATUR        CLOUDY    79  57  46 SW10      30.08F HX  80
EFFINGHAM      PTSUNNY   81  51  35 S8        30.11F HX  80
FLORA          PTSUNNY   83  54  36 SW14      30.11F HX  82
GALESBURG      MOSUNNY   75  63  65 E8        30.06F
JACKSONVILLE   CLOUDY    83  57  41 S12       30.06S HX  82
LACON          MOSUNNY   75  62  63 E5        30.08F
LAWRENCEVILLE  PTSUNNY   82  57  42 SW13      30.12S HX  82
LITCHFIELD     PTSUNNY   83  52  34 SW16      30.08S HX  82
$$


CITY           SKY/WX    TMP DP  RH WIND       PRES   REMARKS
LINCOLN        PTSUNNY   81  57  43 CALM      30.05F HX  81
MACOMB         CLOUDY    72  66  80 E10       30.07F
MATTOON        PTSUNNY   79  56  45 SW10G18   30.09F HX  80
MT CARMEL AP   MOSUNNY   88  43  20 SW17      30.11F HX  84
OLNEY-NOBLE AP MOSUNNY   81  55  41 SW8       30.11F HX  80
PARIS          PTSUNNY   80  57  46 S14       30.11F HX  80
PEORIA         PTSUNNY   77  63  61 E6        30.07F
PONTIAC        PTSUNNY   74  65  73 NE3       30.11F
RANTOUL        CLOUDY    73  67  80 NE8       30.11S
ROBINSON       PTSUNNY   82  55  38 SW14      30.12S HX  82
SPRINGFIELD    PTSUNNY   82  56  40 SW10      30.06F HX  82
TAYLORVILLE    PTSUNNY   81  55  41 S8        30.08S HX  80
$$

...REGIONAL REPORTS...


CITY           SKY/WX    TMP DP  RH WIND       PRES   REMARKS
CHICAGO O`HARE CLOUDY    67  54  63 NE12      30.13R
KANKAKEE       CLOUDY    70  64  80 CALM      30.13S
MOLINE         PTSUNNY   75  61  61 NE14      30.06F
MOUNT VERNON   MOSUNNY  N/A N/A N/A S14       30.11F
PITTSFIELD     PTSUNNY   82  59  46 S8        30.06F HX  82
QUINCY         CLOUDY    80  59  48 SW14      30.04F HX  81
ROCKFORD       MOSUNNY   75  57  53 NE9       30.12S
$$


CITY           SKY/WX    TMP DP  RH WIND       PRES   REMARKS
BURLINGTON     CLOUDY    76  61  59 E7        30.02F THUNDER
CEDAR RAPIDS   CLOUDY    70  62  76 E14       30.07F
DES MOINES     CLOUDY    69  60  73 N6        30.09R
KIRKSVILLE     PTSUNNY   77  63  61 S8        30.04F
OTTUMWA        TSTM      74  63  68 NE14      30.03R
ST LOUIS       PTSUNNY   85  57  38 SW9       30.06F HX  84
$$


CITY           SKY/WX    TMP DP  RH WIND       PRES   REMARKS
TERRE HAUTE    PTSUNNY   80  59  48 SW9       30.11F HX  81
EVANSVILLE     PTSUNNY   81  57  43 SW10      30.14S HX  81
INDIANAPOLIS   PTSUNNY   75  59  57 S12       30.12F
LAFAYETTE      TSTM      65  64  97 SE3       30.13R FOG
MADISON        PTSUNNY   71  55  56 E10       30.12S
MILWAUKEE      PTSUNNY   59  40  49 NE12      30.17R
$$





USA.gov is the U.S. government's official web portal to all federal, state and local government web resources and services.